| time (UTC) | temp C | wind direction | speed KPH | gust KPH | rain 1hr cm | rain 24hr cm | rain mn cm | humidity % | barometer mb |
| 20260507012634 | 26 | 236 | 4.8 | 20.9 | 0.00 | 0.00 | 0.00 | 68 | 1015.0 |
| 20260507012118 | 26 | 314 | 3.2 | 12.9 | 0.00 | 0.00 | 0.00 | 70 | 1015.1 |
| 20260507011538 | 26 | 316 | 3.2 | 9.7 | 0.00 | 0.00 | 0.00 | 72 | 1015.1 |
| 20260507011231 | 25 | 226 | 3.2 | 8.0 | 0.00 | 0.00 | 0.00 | 73 | 1015.2 |
| 20260507010449 | 25 | 249 | 3.2 | 14.5 | 0.00 | 0.00 | 0.00 | 73 | 1015.2 |
| 20260507005926 | 25 | 274 | 3.2 | 14.5 | 0.00 | 0.00 | 0.00 | 74 | 1015.3 |
| 20260507005357 | 24 | 292 | 1.6 | 12.9 | 0.00 | 0.00 | 0.00 | 76 | 1015.4 |
| 20260507004828 | 24 | 252 | 1.6 | 8.0 | 0.00 | 0.00 | 0.00 | 77 | 1015.5 |
| 20260507004302 | 23 | 243 | 3.2 | 8.0 | 0.00 | 0.00 | 0.00 | 79 | 1015.6 |
| 20260507003736 | 23 | 252 | 1.6 | 8.0 | 0.00 | 0.00 | 0.00 | 80 | 1015.6 |
| 20260507003235 | 23 | 306 | 1.6 | 8.0 | 0.00 | 0.00 | 0.00 | 81 | 1015.6 |
| 20260507002731 | 22 | 300 | 1.6 | 4.8 | 0.00 | 0.00 | 0.00 | 81 | 1015.7 |
| 20260507002230 | 22 | 300 | 1.6 | 6.4 | 0.00 | 0.00 | 0.00 | 81 | 1015.9 |
| 20260507001729 | 22 | 300 | 1.6 | 9.7 | 0.00 | 0.00 | 0.00 | 82 | 1015.9 |
| 20260507001450 | 22 | 256 | 1.6 | 9.7 | 0.00 | 0.00 | 0.00 | 82 | 1016.0 |
| 20260507000943 | 22 | 317 | 3.2 | 9.7 | 0.00 | 0.00 | 0.00 | 82 | 1016.2 |
| 20260507000223 | 22 | 306 | 3.2 | 9.7 | 0.00 | 0.00 | 0.00 | 82 | 1016.2 |
| 20260506235718 | 22 | 323 | 1.6 | 9.7 | 0.00 | 0.00 | 0.00 | 83 | 1016.5 |
| 20260506235218 | 22 | 282 | 1.6 | 6.4 | 0.00 | 0.00 | 0.00 | 84 | 1016.6 |
| 20260506234721 | 22 | 303 | 1.6 | 6.4 | 0.00 | 0.00 | 0.00 | 84 | 1016.7 |
| 20260506234220 | 22 | 251 | 1.6 | 6.4 | 0.00 | 0.00 | 0.00 | 85 | 1016.6 |
| 20260506233710 | 22 | 249 | 1.6 | 6.4 | 0.00 | 0.00 | 0.00 | 85 | 1016.8 |
| 20260506233211 | 21 | 263 | 1.6 | 6.4 | 0.00 | 0.00 | 0.00 | 85 | 1016.8 |
| 20260506232709 | 21 | 266 | 1.6 | 6.4 | 0.00 | 0.00 | 0.00 | 85 | 1016.9 |
| 20260506232203 | 21 | 241 | 1.6 | 14.5 | 0.00 | 0.00 | 0.00 | 86 | 1016.8 |
| 20260506231919 | 21 | 237 | 1.6 | 14.5 | 0.00 | 0.00 | 0.00 | 86 | 1016.9 |
| 20260506231159 | 21 | 266 | 1.6 | 14.5 | 0.00 | 0.00 | 0.00 | 86 | 1016.9 |
| 20260506230700 | 21 | 232 | 3.2 | 14.5 | 0.00 | 0.00 | 0.00 | 87 | 1016.8 |
| 20260506230134 | 21 | 254 | 4.8 | 14.5 | 0.00 | 0.00 | 0.00 | 88 | 1016.8 |
| 20260506225607 | 21 | 236 | 3.2 | 14.5 | 0.00 | 0.00 | 0.00 | 89 | 1016.8 |
| 20260506225324 | 21 | 213 | 1.6 | 16.1 | 0.00 | 0.00 | 0.00 | 90 | 1016.8 |
| 20260506224605 | 21 | 213 | 3.2 | 16.1 | 0.00 | 0.00 | 0.00 | 90 | 1016.8 |
| 20260506224101 | 20 | 254 | 4.8 | 17.7 | 0.00 | 0.00 | 0.00 | 91 | 1016.9 |
| 20260506223601 | 20 | 245 | 4.8 | 17.7 | 0.00 | 0.00 | 0.00 | 92 | 1016.8 |
| 20260506223059 | 20 | 256 | 4.8 | 17.7 | 0.00 | 0.00 | 0.00 | 93 | 1016.7 |
| 20260506222559 | 20 | 245 | 4.8 | 17.7 | 0.00 | 0.00 | 0.00 | 93 | 1016.5 |
| 20260506222059 | 20 | 259 | 3.2 | 11.3 | 0.00 | 0.00 | 0.00 | 94 | 1016.5 |
| 20260506221600 | 19 | 241 | 4.8 | 12.9 | 0.00 | 0.00 | 0.00 | 94 | 1016.6 |
| 20260506221059 | 19 | 245 | 3.2 | 12.9 | 0.00 | 0.00 | 0.00 | 94 | 1016.7 |
| 20260506220559 | 18 | 237 | 3.2 | 12.9 | 0.00 | 0.00 | 0.00 | 94 | 1016.6 |
| 20260506215532 | 18 | 247 | 3.2 | 14.5 | 0.00 | 0.00 | 0.00 | 94 | 1016.3 |
| 20260506215022 | 18 | 254 | 3.2 | 12.9 | 0.00 | 0.00 | 0.00 | 94 | 1016.2 |
| 20260506214523 | 18 | 260 | 3.2 | 9.7 | 0.00 | 0.00 | 0.00 | 94 | 1016.2 |
| 20260506214249 | 17 | 237 | 1.6 | 8.0 | 0.00 | 0.00 | 0.00 | 94 | 1016.1 |
| 20260506213521 | 17 | 231 | 1.6 | 6.4 | 0.00 | 0.00 | 0.00 | 94 | 1016.1 |
| 20260506213246 | 17 | 232 | 1.6 | 6.4 | 0.00 | 0.00 | 0.00 | 94 | 1016.1 |
| 20260506212521 | 17 | 235 | 0.0 | 4.8 | 0.00 | 0.00 | 0.00 | 94 | 1016.1 |
| 20260506212017 | 17 | 235 | 0.0 | 0.0 | 0.00 | 0.00 | 0.00 | 94 | 1016.2 |
| 20260506211517 | 17 | 235 | 0.0 | 0.0 | 0.00 | 0.00 | 0.00 | 94 | 1016.3 |
| 20260506211016 | 17 | 235 | 0.0 | 0.0 | 0.00 | 0.00 | 0.00 | 94 | 1016.2 |
| 20260506210729 | 17 | 235 | 0.0 | 6.4 | 0.00 | 0.00 | 0.00 | 94 | 1016.2 |
| 20260506210007 | 17 | 235 | 1.6 | 6.4 | 0.00 | 0.00 | 0.00 | 94 | 1016.1 |
| 20260506205505 | 17 | 235 | 1.6 | 6.4 | 0.00 | 0.00 | 0.00 | 94 | 1016.1 |
| 20260506205004 | 17 | 256 | 1.6 | 6.4 | 0.00 | 0.00 | 0.00 | 94 | 1016.1 |
| 20260506204502 | 17 | 189 | 1.6 | 6.4 | 0.00 | 0.00 | 0.00 | 94 | 1016.1 |
| 20260506204222 | 17 | 230 | 1.6 | 4.8 | 0.00 | 0.00 | 0.00 | 94 | 1016.1 |
| 20260506203505 | 17 | 227 | 1.6 | 8.0 | 0.00 | 0.00 | 0.00 | 94 | 1016.1 |
| 20260506203001 | 17 | 227 | 1.6 | 8.0 | 0.00 | 0.00 | 0.00 | 94 | 1016.0 |
| 20260506202721 | 16 | 133 | 1.6 | 4.8 | 0.00 | 0.00 | 0.00 | 93 | 1016.0 |
| 20260506202001 | 16 | 129 | 0.0 | 4.8 | 0.00 | 0.00 | 0.00 | 93 | 1016.0 |
| 20260506201459 | 16 | 129 | 0.0 | 4.8 | 0.00 | 0.00 | 0.00 | 93 | 1015.9 |
| 20260506200958 | 16 | 129 | 0.0 | 3.2 | 0.00 | 0.00 | 0.00 | 93 | 1015.9 |
| 20260506200459 | 16 | 129 | 0.0 | 3.2 | 0.00 | 0.00 | 0.00 | 93 | 1015.8 |
| 20260506200217 | 16 | 129 | 0.0 | 4.8 | 0.00 | 0.00 | 0.00 | 93 | 1015.7 |
| 20260506195716 | 16 | 129 | 0.0 | 4.8 | 0.00 | 0.00 | 0.00 | 93 | 1015.7 |
| 20260506194955 | 16 | 129 | 0.0 | 1.6 | 0.00 | 0.00 | 0.00 | 93 | 1015.5 |
| 20260506194447 | 16 | 129 | 0.0 | 1.6 | 0.00 | 0.00 | 0.00 | 93 | 1015.4 |
| 20260506194211 | 16 | 129 | 0.0 | 0.0 | 0.00 | 0.00 | 0.00 | 93 | 1015.3 |
| 20260506193443 | 16 | 129 | 0.0 | 1.6 | 0.00 | 0.00 | 0.00 | 93 | 1015.2 |
| 20260506192945 | 16 | 129 | 0.0 | 1.6 | 0.00 | 0.00 | 0.00 | 93 | 1015.1 |
| 20260506192421 | 16 | 129 | 0.0 | 0.0 | 0.00 | 0.00 | 0.00 | 93 | 1015.1 |
| 20260506191919 | 16 | 129 | 0.0 | 0.0 | 0.00 | 0.00 | 0.00 | 93 | 1015.2 |
| 20260506191418 | 16 | 130 | 0.0 | 0.0 | 0.00 | 0.00 | 0.00 | 93 | 1015.1 |
| 20260506190915 | 16 | 129 | 0.0 | 0.0 | 0.00 | 0.00 | 0.00 | 93 | 1015.1 |
| 20260506190640 | 16 | 130 | 0.0 | 3.2 | 0.00 | 0.00 | 0.00 | 93 | 1015.1 |
| 20260506185915 | 17 | 130 | 0.0 | 3.2 | 0.00 | 0.00 | 0.00 | 92 | 1015.1 |
| 20260506185413 | 17 | 130 | 0.0 | 1.6 | 0.00 | 0.00 | 0.00 | 92 | 1015.2 |
| 20260506185139 | 17 | 129 | 0.0 | 1.6 | 0.00 | 0.00 | 0.00 | 92 | 1015.1 |
| 20260506184409 | 17 | 129 | 0.0 | 0.0 | 0.00 | 0.00 | 0.00 | 92 | 1015.2 |
| 20260506183909 | 17 | 129 | 0.0 | 0.0 | 0.00 | 0.00 | 0.00 | 92 | 1015.3 |
| 20260506183400 | 17 | 129 | 0.0 | 0.0 | 0.00 | 0.00 | 0.00 | 92 | 1015.3 |
| 20260506182859 | 17 | 130 | 0.0 | 1.6 | 0.00 | 0.00 | 0.00 | 92 | 1015.2 |
| 20260506182621 | 17 | 129 | 0.0 | 1.6 | 0.00 | 0.00 | 0.00 | 92 | 1015.2 |
| 20260506181858 | 17 | 129 | 0.0 | 0.0 | 0.00 | 0.00 | 0.00 | 92 | 1015.2 |
| 20260506181343 | 17 | 129 | 0.0 | 1.6 | 0.00 | 0.00 | 0.00 | 92 | 1015.2 |
| 20260506181305 | 17 | 129 | 0.0 | 1.6 | 0.00 | 0.00 | 0.00 | 92 | 1015.3 |
| 20260506180932 | 17 | 129 | 0.0 | 1.6 | 0.00 | 0.00 | 0.00 | 92 | 1015.2 |
| 20260506175834 | 17 | 130 | 0.0 | 0.0 | 0.00 | 0.00 | 0.00 | 92 | 1015.3 |
| 20260506175330 | 17 | 129 | 0.0 | 0.0 | 0.00 | 0.00 | 0.00 | 92 | 1015.4 |
| 20260506174828 | 17 | 130 | 0.0 | 3.2 | 0.00 | 0.00 | 0.00 | 92 | 1015.3 |
| 20260506174547 | 17 | 129 | 0.0 | 3.2 | 0.00 | 0.00 | 0.00 | 92 | 1015.4 |
| 20260506173826 | 17 | 129 | 0.0 | 3.2 | 0.00 | 0.00 | 0.00 | 92 | 1015.4 |
| 20260506173544 | 17 | 129 | 0.0 | 3.2 | 0.00 | 0.00 | 0.00 | 92 | 1015.4 |
| 20260506172821 | 17 | 129 | 0.0 | 0.0 | 0.00 | 0.00 | 0.00 | 92 | 1015.3 |
| 20260506172314 | 17 | 129 | 0.0 | 0.0 | 0.00 | 0.00 | 0.00 | 92 | 1015.3 |
| 20260506172040 | 17 | 129 | 0.0 | 0.0 | 0.00 | 0.00 | 0.00 | 92 | 1015.4 |
| 20260506171534 | 17 | 129 | 0.0 | 0.0 | 0.00 | 0.00 | 0.00 | 92 | 1015.4 |
| 20260506171250 | 17 | 129 | 0.0 | 1.6 | 0.00 | 0.00 | 0.00 | 92 | 1015.4 |
| 20260506170301 | 17 | 129 | 0.0 | 1.6 | 0.00 | 0.00 | 0.00 | 92 | 1015.5 |
| 20260506165759 | 17 | 129 | 0.0 | 4.8 | 0.00 | 0.00 | 0.00 | 92 | 1015.5 |
| 20260506165259 | 17 | 129 | 0.0 | 4.8 | 0.00 | 0.00 | 0.00 | 92 | 1015.7 |
| 20260506165017 | 17 | 129 | 1.6 | 4.8 | 0.00 | 0.00 | 0.00 | 92 | 1015.7 |
| 20260506164257 | 17 | 129 | 1.6 | 4.8 | 0.00 | 0.00 | 0.00 | 92 | 1015.8 |
| 20260506163754 | 17 | 129 | 0.0 | 3.2 | 0.00 | 0.00 | 0.00 | 92 | 1015.9 |
| 20260506163254 | 17 | 129 | 0.0 | 3.2 | 0.00 | 0.00 | 0.00 | 91 | 1016.0 |
| 20260506162753 | 17 | 129 | 0.0 | 3.2 | 0.00 | 0.00 | 0.00 | 91 | 1015.9 |
| 20260506162736 | 17 | 130 | 0.0 | 3.2 | 0.00 | 0.00 | 0.00 | 92 | 1015.9 |
| 20260506161749 | 17 | 130 | 0.0 | 1.6 | 0.00 | 0.00 | 0.00 | 92 | 1015.9 |
| 20260506161247 | 17 | 129 | 0.0 | 1.6 | 0.00 | 0.00 | 0.00 | 92 | 1015.8 |
| 20260506160800 | 17 | 129 | 0.0 | 1.6 | 0.00 | 0.00 | 0.00 | 91 | 1015.7 |
| 20260506160235 | 17 | 130 | 0.0 | 0.0 | 0.00 | 0.00 | 0.00 | 91 | 1015.8 |
| 20260506155654 | 17 | 130 | 0.0 | 0.0 | 0.00 | 0.00 | 0.00 | 91 | 1015.8 |
| 20260506155126 | 17 | 130 | 0.0 | 0.0 | 0.00 | 0.00 | 0.00 | 91 | 1015.9 |
| 20260506154558 | 18 | 129 | 0.0 | 0.0 | 0.00 | 0.00 | 0.00 | 91 | 1015.8 |
| 20260506154033 | 18 | 129 | 0.0 | 0.0 | 0.00 | 0.00 | 0.00 | 91 | 1015.8 |
| 20260506153506 | 18 | 129 | 0.0 | 0.0 | 0.00 | 0.00 | 0.00 | 91 | 1015.8 |
| 20260506152940 | 18 | 129 | 0.0 | 0.0 | 0.00 | 0.00 | 0.00 | 91 | 1015.8 |
| 20260506152412 | 18 | 129 | 0.0 | 3.2 | 0.00 | 0.00 | 0.00 | 91 | 1016.0 |
| 20260506151846 | 18 | 129 | 0.0 | 3.2 | 0.00 | 0.00 | 0.00 | 91 | 1016.0 |
| 20260506151321 | 18 | 129 | 0.0 | 3.2 | 0.00 | 0.00 | 0.00 | 91 | 1016.0 |
| 20260506150757 | 18 | 129 | 0.0 | 0.0 | 0.00 | 0.00 | 0.00 | 91 | 1016.1 |
| 20260506150230 | 18 | 130 | 0.0 | 0.0 | 0.00 | 0.00 | 0.00 | 91 | 1016.2 |
| 20260506145705 | 18 | 129 | 0.0 | 0.0 | 0.00 | 0.00 | 0.00 | 91 | 1016.2 |
| 20260506145407 | 18 | 130 | 0.0 | 0.0 | 0.00 | 0.00 | 0.00 | 91 | 1016.2 |
| 20260506144613 | 18 | 130 | 0.0 | 0.0 | 0.00 | 0.00 | 0.00 | 91 | 1016.3 |
| 20260506144045 | 18 | 129 | 0.0 | 0.0 | 0.00 | 0.00 | 0.00 | 91 | 1016.3 |
| 20260506143521 | 18 | 130 | 0.0 | 0.0 | 0.00 | 0.00 | 0.00 | 91 | 1016.2 |
| 20260506142956 | 18 | 130 | 0.0 | 0.0 | 0.00 | 0.00 | 0.00 | 91 | 1016.5 |
| 20260506142653 | 18 | 129 | 0.0 | 1.6 | 0.00 | 0.00 | 0.00 | 91 | 1016.6 |
| 20260506141918 | 18 | 129 | 0.0 | 1.6 | 0.00 | 0.00 | 0.00 | 91 | 1016.6 |
| 20260506141637 | 18 | 129 | 0.0 | 3.2 | 0.00 | 0.00 | 0.00 | 90 | 1016.7 |
| 20260506140854 | 18 | 129 | 0.0 | 3.2 | 0.00 | 0.00 | 0.00 | 90 | 1016.6 |
| 20260506140342 | 18 | 129 | 0.0 | 3.2 | 0.00 | 0.00 | 0.00 | 90 | 1016.6 |
| 20260506135840 | 18 | 130 | 0.0 | 3.2 | 0.00 | 0.00 | 0.00 | 90 | 1016.6 |
| 20260506135340 | 18 | 130 | 0.0 | 3.2 | 0.00 | 0.00 | 0.00 | 89 | 1016.6 |
| 20260506134839 | 18 | 130 | 0.0 | 3.2 | 0.00 | 0.00 | 0.00 | 89 | 1016.5 |
| 20260506134336 | 18 | 130 | 0.0 | 3.2 | 0.00 | 0.00 | 0.00 | 89 | 1016.6 |
| 20260506133834 | 18 | 130 | 0.0 | 0.0 | 0.00 | 0.00 | 0.00 | 89 | 1016.6 |
| 20260506133336 | 18 | 130 | 0.0 | 0.0 | 0.00 | 0.00 | 0.00 | 89 | 1016.7 |
| 20260506132832 | 18 | 130 | 0.0 | 0.0 | 0.00 | 0.00 | 0.00 | 89 | 1016.7 |
| 20260506132330 | 18 | 130 | 0.0 | 0.0 | 0.00 | 0.00 | 0.00 | 89 | 1016.7 |
| 20260506131828 | 18 | 130 | 0.0 | 0.0 | 0.00 | 0.00 | 0.00 | 89 | 1016.7 |
| 20260506131330 | 18 | 130 | 0.0 | 0.0 | 0.00 | 0.00 | 0.00 | 88 | 1016.8 |
| 20260506131047 | 18 | 130 | 0.0 | 0.0 | 0.00 | 0.00 | 0.00 | 88 | 1016.9 |
| 20260506130326 | 19 | 130 | 0.0 | 0.0 | 0.00 | 0.00 | 0.00 | 88 | 1016.9 |
| 20260506125825 | 19 | 130 | 0.0 | 0.0 | 0.00 | 0.00 | 0.00 | 88 | 1016.9 |
| 20260506125551 | 19 | 130 | 0.0 | 0.0 | 0.00 | 0.00 | 0.00 | 88 | 1016.9 |
| 20260506124800 | 19 | 130 | 0.0 | 0.0 | 0.00 | 0.00 | 0.00 | 88 | 1017.0 |
| 20260506124232 | 19 | 130 | 0.0 | 0.0 | 0.00 | 0.00 | 0.00 | 88 | 1017.0 |
| 20260506123705 | 19 | 130 | 0.0 | 1.6 | 0.00 | 0.00 | 0.00 | 88 | 1017.1 |
| 20260506123200 | 19 | 129 | 0.0 | 1.6 | 0.00 | 0.00 | 0.00 | 88 | 1017.2 |
| 20260506122650 | 19 | 130 | 0.0 | 3.2 | 0.00 | 0.00 | 0.00 | 88 | 1017.2 |
| 20260506122125 | 19 | 130 | 0.0 | 3.2 | 0.00 | 0.00 | 0.00 | 88 | 1016.9 |
| 20260506121615 | 19 | 130 | 0.0 | 1.6 | 0.00 | 0.00 | 0.00 | 88 | 1016.9 |
| 20260506121114 | 20 | 130 | 0.0 | 3.2 | 0.00 | 0.00 | 0.00 | 88 | 1017.0 |
| 20260506120549 | 20 | 130 | 0.0 | 3.2 | 0.00 | 0.00 | 0.00 | 88 | 1017.2 |
| 20260506120028 | 20 | 130 | 0.0 | 3.2 | 0.00 | 0.00 | 0.00 | 88 | 1017.2 |
| 20260506115458 | 20 | 129 | 1.6 | 3.2 | 0.00 | 0.00 | 0.00 | 88 | 1017.2 |
| 20260506114954 | 20 | 129 | 1.6 | 4.8 | 0.00 | 0.00 | 0.00 | 88 | 1017.2 |
| 20260506114453 | 20 | 129 | 1.6 | 4.8 | 0.00 | 0.00 | 0.00 | 89 | 1017.3 |
| 20260506114213 | 20 | 130 | 1.6 | 3.2 | 0.00 | 0.00 | 0.00 | 89 | 1017.4 |
| 20260506113721 | 20 | 130 | 1.6 | 3.2 | 0.00 | 0.00 | 0.00 | 88 | 1017.4 |
| 20260506113213 | 20 | 130 | 1.6 | 3.2 | 0.00 | 0.00 | 0.00 | 88 | 1017.5 |
| 20260506112447 | 20 | 130 | 1.6 | 3.2 | 0.00 | 0.00 | 0.00 | 88 | 1017.5 |
| 20260506112405 | 20 | 130 | 1.6 | 6.4 | 0.00 | 0.00 | 0.00 | 88 | 1017.5 |
| 20260506112033 | 20 | 129 | 1.6 | 3.2 | 0.00 | 0.00 | 0.00 | 88 | 1017.6 |
| 20260506110938 | 20 | 130 | 3.2 | 6.4 | 0.00 | 0.00 | 0.00 | 88 | 1017.4 |
| 20260506110435 | 20 | 130 | 3.2 | 6.4 | 0.00 | 0.00 | 0.00 | 89 | 1017.4 |
| 20260506105934 | 20 | 130 | 3.2 | 4.8 | 0.00 | 0.00 | 0.00 | 89 | 1017.4 |
| 20260506105658 | 20 | 130 | 1.6 | 6.4 | 0.00 | 0.00 | 0.00 | 89 | 1017.4 |
| 20260506104934 | 20 | 130 | 1.6 | 6.4 | 0.00 | 0.00 | 0.00 | 89 | 1017.5 |
| 20260506104406 | 20 | 130 | 3.2 | 6.4 | 0.00 | 0.00 | 0.00 | 89 | 1017.5 |
| 20260506103840 | 20 | 146 | 3.2 | 6.4 | 0.00 | 0.00 | 0.00 | 89 | 1017.5 |
| 20260506103534 | 20 | 124 | 1.6 | 4.8 | 0.00 | 0.00 | 0.00 | 89 | 1017.5 |
| 20260506102745 | 20 | 118 | 3.2 | 6.4 | 0.00 | 0.00 | 0.00 | 89 | 1017.6 |
| 20260506102216 | 20 | 118 | 3.2 | 8.0 | 0.00 | 0.00 | 0.00 | 88 | 1017.5 |
| 20260506101650 | 20 | 118 | 3.2 | 8.0 | 0.00 | 0.00 | 0.00 | 88 | 1017.5 |
| 20260506101133 | 20 | 118 | 1.6 | 4.8 | 0.00 | 0.00 | 0.00 | 88 | 1017.6 |
| 20260506100634 | 20 | 118 | 1.6 | 4.8 | 0.00 | 0.00 | 0.00 | 88 | 1017.6 |
| 20260506100129 | 20 | 118 | 0.0 | 4.8 | 0.00 | 0.00 | 0.00 | 88 | 1017.6 |
| 20260506095617 | 20 | 118 | 0.0 | 0.0 | 0.00 | 0.00 | 0.00 | 88 | 1017.6 |
| 20260506095059 | 20 | 118 | 0.0 | 0.0 | 0.00 | 0.00 | 0.00 | 88 | 1017.6 |
| 20260506094600 | 20 | 118 | 0.0 | 1.6 | 0.00 | 0.00 | 0.00 | 87 | 1017.5 |
| 20260506094247 | 20 | 118 | 0.0 | 1.6 | 0.00 | 0.00 | 0.00 | 87 | 1017.5 |
| 20260506093514 | 20 | 118 | 0.0 | 3.2 | 0.00 | 0.00 | 0.00 | 87 | 1017.4 |
| 20260506093013 | 20 | 118 | 1.6 | 4.8 | 0.00 | 0.00 | 0.00 | 86 | 1017.5 |
| 20260506092446 | 20 | 118 | 1.6 | 4.8 | 0.00 | 0.00 | 0.00 | 86 | 1017.4 |
| 20260506092209 | 20 | 118 | 0.0 | 3.2 | 0.00 | 0.00 | 0.00 | 86 | 1017.5 |
| 20260506091704 | 20 | 118 | 0.0 | 1.6 | 0.00 | 0.00 | 0.00 | 86 | 1017.5 |
| 20260506090941 | 20 | 118 | 0.0 | 1.6 | 0.00 | 0.00 | 0.00 | 86 | 1017.4 |
| 20260506090440 | 20 | 118 | 1.6 | 3.2 | 0.00 | 0.00 | 0.00 | 86 | 1017.3 |
| 20260506085940 | 20 | 118 | 1.6 | 4.8 | 0.00 | 0.00 | 0.00 | 86 | 1017.2 |
| 20260506085438 | 20 | 118 | 3.2 | 6.4 | 0.00 | 0.00 | 0.00 | 86 | 1017.1 |
| 20260506084936 | 20 | 118 | 3.2 | 11.3 | 0.00 | 0.00 | 0.00 | 86 | 1017.1 |
| 20260506084435 | 20 | 118 | 3.2 | 11.3 | 0.00 | 0.00 | 0.00 | 86 | 1017.0 |
| 20260506083938 | 20 | 118 | 3.2 | 11.3 | 0.00 | 0.00 | 0.00 | 86 | 1017.0 |
| 20260506083429 | 20 | 118 | 4.8 | 11.3 | 0.00 | 0.00 | 0.00 | 85 | 1016.9 |
| 20260506083147 | 20 | 114 | 3.2 | 8.0 | 0.00 | 0.00 | 0.00 | 85 | 1016.8 |
| 20260506082427 | 20 | 109 | 4.8 | 11.3 | 0.00 | 0.00 | 0.00 | 85 | 1016.7 |
| 20260506081928 | 21 | 109 | 4.8 | 11.3 | 0.00 | 0.00 | 0.00 | 85 | 1016.7 |
| 20260506081358 | 21 | 106 | 3.2 | 11.3 | 0.00 | 0.00 | 0.00 | 84 | 1016.6 |
| 20260506080840 | 21 | 116 | 3.2 | 8.0 | 0.00 | 0.00 | 0.00 | 84 | 1016.6 |
| 20260506080341 | 21 | 116 | 3.2 | 8.0 | 0.00 | 0.00 | 0.00 | 84 | 1016.5 |
| 20260506072730 | 21 | 114 | 4.8 | 14.5 | 0.00 | 0.00 | 0.00 | 82 | 1016.1 |
| 20260506072227 | 21 | 117 | 4.8 | 11.3 | 0.00 | 0.00 | 0.00 | 82 | 1016.1 |
| 20260506071727 | 21 | 129 | 4.8 | 14.5 | 0.00 | 0.00 | 0.00 | 82 | 1016.0 |
| 20260506071227 | 22 | 118 | 4.8 | 14.5 | 0.00 | 0.00 | 0.00 | 81 | 1015.9 |
| 20260506070726 | 22 | 119 | 4.8 | 11.3 | 0.00 | 0.00 | 0.00 | 81 | 1015.8 |
| 20260506070225 | 22 | 122 | 3.2 | 11.3 | 0.00 | 0.00 | 0.00 | 81 | 1015.8 |
| 20260506062119 | 23 | 115 | 6.4 | 12.9 | 0.00 | 0.00 | 0.00 | 78 | 1015.6 |
| 20260506061552 | 23 | 118 | 6.4 | 12.9 | 0.00 | 0.00 | 0.00 | 77 | 1015.6 |
| 20260506061250 | 23 | 114 | 6.4 | 16.1 | 0.00 | 0.00 | 0.00 | 77 | 1015.7 |
| 20260506060535 | 23 | 116 | 6.4 | 16.1 | 0.00 | 0.00 | 0.00 | 77 | 1015.7 |
| 20260506051001 | 24 | 133 | 6.4 | 14.5 | 0.00 | 0.00 | 0.00 | 74 | 1015.6 |
| 20260506050500 | 24 | 135 | 6.4 | 17.7 | 0.00 | 0.00 | 0.00 | 74 | 1015.6 |
| 20260506045001 | 25 | 122 | 8.0 | 19.3 | 0.00 | 0.00 | 0.00 | 74 | 1015.6 |
| 20260506044445 | 25 | 120 | 6.4 | 20.9 | 0.00 | 0.00 | 0.00 | 74 | 1015.6 |
| 20260506043946 | 25 | 108 | 6.4 | 14.5 | 0.00 | 0.00 | 0.00 | 74 | 1015.6 |
| 20260506043419 | 25 | 122 | 6.4 | 16.1 | 0.00 | 0.00 | 0.00 | 74 | 1015.6 |
| 20260506042920 | 25 | 117 | 6.4 | 16.1 | 0.00 | 0.00 | 0.00 | 73 | 1015.6 |
| 20260506042419 | 25 | 130 | 6.4 | 20.9 | 0.00 | 0.00 | 0.00 | 74 | 1015.6 |
| 20260506041915 | 25 | 109 | 8.0 | 20.9 | 0.00 | 0.00 | 0.00 | 73 | 1015.6 |
| 20260506041415 | 25 | 164 | 8.0 | 14.5 | 0.00 | 0.00 | 0.00 | 74 | 1015.6 |
| 20260506040928 | 24 | 119 | 8.0 | 17.7 | 0.00 | 0.00 | 0.00 | 75 | 1015.6 |
| 20260506040414 | 24 | 199 | 9.7 | 17.7 | 0.00 | 0.00 | 0.00 | 75 | 1015.7 |
| 20260506035911 | 24 | 123 | 9.7 | 17.7 | 0.00 | 0.00 | 0.00 | 75 | 1015.7 |
| 20260506035411 | 24 | 86 | 9.7 | 17.7 | 0.00 | 0.00 | 0.00 | 75 | 1015.8 |
| 20260506034907 | 24 | 130 | 9.7 | 17.7 | 0.00 | 0.00 | 0.00 | 73 | 1015.7 |
| 20260506034406 | 24 | 124 | 6.4 | 17.7 | 0.00 | 0.00 | 0.00 | 74 | 1015.8 |
| 20260506033904 | 25 | 122 | 4.8 | 12.9 | 0.00 | 0.00 | 0.00 | 73 | 1015.8 |
| 20260506033404 | 25 | 146 | 4.8 | 12.9 | 0.00 | 0.00 | 0.00 | 73 | 1015.8 |
| 20260506032900 | 25 | 118 | 4.8 | 12.9 | 0.00 | 0.00 | 0.00 | 73 | 1015.9 |
| 20260506032403 | 25 | 124 | 4.8 | 12.9 | 0.00 | 0.00 | 0.00 | 73 | 1015.9 |
| 20260506031854 | 25 | 118 | 6.4 | 12.9 | 0.00 | 0.00 | 0.00 | 73 | 1016.0 |
| 20260506031351 | 25 | 128 | 6.4 | 17.7 | 0.00 | 0.00 | 0.00 | 72 | 1016.0 |
| 20260506030850 | 25 | 137 | 6.4 | 17.7 | 0.00 | 0.00 | 0.00 | 71 | 1016.0 |
| 20260506030347 | 25 | 129 | 8.0 | 17.7 | 0.00 | 0.00 | 0.00 | 70 | 1016.0 |
| 20260506025846 | 25 | 161 | 6.4 | 17.7 | 0.00 | 0.00 | 0.00 | 69 | 1016.0 |
| 20260506025345 | 26 | 133 | 4.8 | 16.1 | 0.00 | 0.00 | 0.00 | 69 | 1016.0 |
| 20260506025102 | 26 | 112 | 4.8 | 14.5 | 0.00 | 0.00 | 0.00 | 69 | 1016.0 |
| 20260506024345 | 26 | 144 | 6.4 | 14.5 | 0.00 | 0.00 | 0.00 | 70 | 1016.0 |
| 20260506023835 | 26 | 141 | 8.0 | 19.3 | 0.00 | 0.00 | 0.00 | 70 | 1016.1 |
| 20260506023557 | 25 | 124 | 8.0 | 19.3 | 0.00 | 0.00 | 0.00 | 71 | 1016.1 |
| 20260506022834 | 25 | 132 | 6.4 | 14.5 | 0.00 | 0.00 | 0.00 | 73 | 1016.1 |
| 20260506022336 | 25 | 128 | 4.8 | 12.9 | 0.00 | 0.00 | 0.00 | 73 | 1016.2 |
| 20260506021807 | 24 | 137 | 8.0 | 17.7 | 0.00 | 0.00 | 0.00 | 73 | 1016.3 |
| 20260506021251 | 25 | 124 | 6.4 | 17.7 | 0.00 | 0.00 | 0.00 | 73 | 1016.5 |
| 20260506020754 | 25 | 123 | 4.8 | 12.9 | 0.00 | 0.00 | 0.00 | 73 | 1016.6 |
| 20260506020446 | 25 | 144 | 4.8 | 12.9 | 0.00 | 0.00 | 0.00 | 72 | 1016.7 |
| 20260506015659 | 25 | 108 | 4.8 | 14.5 | 0.00 | 0.00 | 0.00 | 73 | 1016.7 |
| 20260506015135 | 25 | 175 | 4.8 | 14.5 | 0.00 | 0.00 | 0.00 | 72 | 1016.8 |
| 20260506014607 | 25 | 125 | 6.4 | 14.5 | 0.00 | 0.00 | 0.00 | 71 | 1016.8 |
| 20260506014043 | 26 | 109 | 6.4 | 16.1 | 0.00 | 0.00 | 0.00 | 70 | 1016.9 |
| 20260506013523 | 26 | 126 | 4.8 | 16.1 | 0.00 | 0.00 | 0.00 | 70 | 1016.9 |
| 20260506013247 | 26 | 122 | 4.8 | 12.9 | 0.00 | 0.00 | 0.00 | 71 | 1016.8 |